Home > Weather > North Bay > Past weeks

Flag for Canada Weather for the Past 2 Weeks in North Bay, Ontario, Canada

Now
64 °F

Scattered clouds.


Feels Like: 64 °F
Forecast: N/A
Wind: 5 mph from Southwest

Location: North Bay

Current Time: May 5, 2016 at 6:06:04 PM

Latest Report: May 5, 2016 at 5:00 PM


Visibility: 30 mi

Pressure: 29.85 "Hg

Humidity: 34%

Dew Point: 36 °F

Location of North BayLocation

Historic Weather in North Bay — Graph

°F

North Bay Temperature Yesterday

Maximum temperature yesterday: 61 °F (at 5:00 PM)
Minimum temperature yesterday: 45 °F (at 4:00 AM)
Average temperature yesterday: 53 °F

High & Low Weather Summary for the Past Weeks

 TemperatureHumidityPressure
High64 °F (May 5, 5:00 PM)100% (Apr 22, 8:00 AM)30.29 "Hg (Apr 22, 8:00 AM)
Low21 °F (Apr 27, 6:00 AM)21% (Apr 27, 4:00 PM)29.70 "Hg (May 4, 3:00 AM)
Average43 °F46%30.04 "Hg
* Reported Apr 20 5:00 PM — May 5 5:00 PM, North Bay, Weather by CustomWeather, © 2016

Note: Actual official high and low records may vary slightly from our data, if they occured in-between our weather recording intervals... More about our weather records

Advertising

North Bay Weather History for the Previous 24 Hours

Scroll right to see more
 ConditionsComfort  
Time TempWeatherWind HumidityBarometerVisibility
5:00 PM
Thu, May 5
64 °FScattered clouds.5 mph34%29.85 "Hg30 mi
4:00 PM61 °FScattered clouds.5 mph42%29.87 "Hg30 mi
3:00 PM63 °FScattered clouds.3 mph34%29.88 "Hg30 mi
2:00 PM61 °FPartly sunny.2 mph42%29.89 "Hg25 mi
1:00 PM61 °FScattered clouds.8 mph42%29.91 "Hg30 mi
12:00 PM59 °FScattered clouds.3 mph45%29.92 "Hg30 mi
11:00 AM57 °FScattered clouds.8 mph48%29.93 "Hg30 mi
10:00 AM55 °FPassing clouds.12 mph55%29.93 "Hg30 mi
9:00 AM52 °FPassing clouds.8 mph62%29.92 "Hg30 mi
8:00 AM50 °FPassing clouds.8 mph58%29.91 "Hg30 mi
7:00 AM45 °FPassing clouds.9 mph61%29.89 "Hg30 mi
6:00 AM43 °FClear.9 mph66%29.88 "Hg9 mi
5:00 AM36 °FClear.5 mph81%29.87 "Hg9 mi
4:00 AM46 °FClear.7 mph57%29.85 "Hg9 mi
3:00 AM46 °FClear.8 mph53%29.85 "Hg9 mi
2:00 AM48 °FClear.9 mph50%29.85 "Hg9 mi
1:00 AM48 °FClear.8 mph50%29.84 "Hg9 mi
12:00 AM50 °FPassing clouds.8 mph50%29.83 "Hg9 mi
11:00 PM
Wed, May 4
52 °FPassing clouds.7 mph50%29.83 "Hg9 mi
10:00 PM54 °FPassing clouds.7 mph47%29.82 "Hg15 mi
9:00 PM55 °FPartly sunny.6 mph44%29.80 "Hg15 mi
8:00 PM57 °FPartly sunny.5 mph39%29.79 "Hg30 mi
7:00 PM59 °FPartly sunny.5 mph39%29.77 "Hg30 mi
6:00 PM59 °FCloudy.8 mph39%29.76 "Hg30 mi
Weather by CustomWeather, © 2016

See weather overviewHow to use our weather pages